Tracking 29892 objects as of 21-Nov-2024
HD Live streaming from Space Station
objects crossing your sky now

DELTA 1 DEB

Track DELTA 1 DEB now!
10-day predictions


NORAD ID: 2118
Int'l Code: 1966-008D
Perigee: 656.0 km
Apogee: 839.1 km
Inclination: 98.0 °
Period: 99.6 minutes
Semi major axis: 7118 km
RCS: 0.0409 m2 (small)
Launch date: February 3, 1966
Source: United States (US)
Launch site: AIR FORCE EASTERN TEST RANGE (AFETR)

Note: This is SATELLITE DEBRIS
Your satellite tracking list
Your tracking list is empty




NASA's NSSDC Master Catalog

Two Line Element Set (TLE):
1 02118U 66008D   24325.65971268  .00002497  00000-0  65090-3 0  9997
2 02118  97.9787 117.4212 0128660 181.2261 178.8636 14.45489980 52922
Source of the keplerian elements: AFSPC